Regional Weather Roundup
Issued by NWS Cleveland, OH

Home | Current Version | Previous Version | Graphics & Text | Print | Product List | Glossary On
Versions: 1 2 3 4 5 6 7 8 9 10 11 12 13 14 15 16 17 18 19 20 21 22 23 24 25 26 27 28 29 30 31 32 33 34 35 36 37 38 39 40 41 42 43 44 45 46 47 48 49 50
000
ASUS41 KCLE 261102
RWRCLE
OHIO REGIONAL WEATHER ROUNDUP
NATIONAL WEATHER SERVICE CLEVELAND, OH
700 AM EDT TUE MAY 26 2015

NOTE: "FAIR" INDICATES FEW OR NO CLOUDS BELOW 12,000 FEET WITH NO
SIGNIFICANT WEATHER AND/OR OBSTRUCTIONS TO VISIBILITY.

OHZ001>008-015>018-024>027-034-035-043-044-261200-
   NORTHWEST OHIO

CITY           SKY/WX    TMP DP  RH WIND       PRES   REMARKS
DEFIANCE       PTCLDY    64  62  93 S6        30.07R FOG
FINDLAY        PTCLDY    66  62  87 S7        30.08R
TOLEDO EXPRESS PTCLDY    64  62  93 S3        30.07R
TOLEDO EXEC    PTCLDY    65  61  87 S7        30.09R
LIMA           PTCLDY    66  63  90 S8        30.09R
$$

OHZ009>014-019>023-028>033-038-089-261200-
   NORTHEAST OHIO

CITY           SKY/WX    TMP DP  RH WIND       PRES   REMARKS
CLE-HOPKINS    MOCLDY    69  61  75 S9        30.13R
CLE-LAKEFRONT  MOCLDY    70  61  73 S10       30.10R
CUY CO. ARPT   MOCLDY    72  64  78 S12       30.12
LORAIN-ELYRIA  CLOUDY    67  61  81 SW6       30.12R
ASHTABULA      CLOUDY    65  61  87 S5        30.13R
AKRON-CANTON   CLOUDY    68  62  81 S10       30.14R
WOOSTER        CLOUDY    66  62  87 S8        30.14R
MANSFIELD      CLOUDY    67  63  87 S12       30.13R
YOUNGSTOWN     CLOUDY    68  62  81 S7        30.15R
$$

OHZ042-051>053-060>062-070>072-077>081-261200-
  SOUTHWEST OHIO

CITY           SKY/WX    TMP DP  RH WIND       PRES   REMARKS
CINC-COVINGTON MOCLDY    67  63  87 S9        30.11R
CINC-LUNKEN    CLOUDY    65  64  97 S5        30.12R
HAMILTON       MOCLDY    65  64  97 E3        30.11S
DAYTON         MOCLDY    68  65  90 S9        30.12R
WRIGHT-PAT AFB MOCLDY    66  65  95 S6        30.12R
DAYTON GENERAL CLOUDY    65  64  97 S8        30.11R
WILMINGTON     CLOUDY    65  62  90 S7        30.13R
$$

OHZ036-037-039>041-045>050-054>059-063>069-073>076-082>088-261200-
  CENTRAL AND SOUTHEAST OHIO

CITY           SKY/WX    TMP DP  RH WIND       PRES   REMARKS
COLUMBUS       CLOUDY    67  63  87 S6        30.14R
OSU AIRPORT    MOCLDY    65  63  93 S6        30.13R
BOLTON FIELD   NOT AVBL
RICKENBACK AFB NOT AVBL
NEWARK         PTCLDY    63  61  93 CALM      30.14R FOG
MARION         CLOUDY    68  63  84 S10       30.12R
LANCASTER      MOCLDY    67  64  90 SE5       30.15R
ZANESVILLE     PTCLDY    65  63  93 CALM      30.16R
NEW PHILLY     CLOUDY    67  64  90 CALM      30.16R
$$


USA.gov is the U.S. government's official web portal to all federal, state and local government web resources and services.